Buffalo, NY

4:03 PM EDT on June 27, 2017 (GMT -0400)
Buffalo Niagara International

Weather History for KBUF - December, 2011

Change the Weather History Date:

Saturday, December 31, 2011

  Actual Average Record
Temperature  
Mean Temperature 42 °F 26 °F  
Max Temperature 45 °F 32 °F 62 °F (1875)
Min Temperature 38 °F 20 °F -4 °F (1962)
Degree Days  
Heating Degree Days 23 39  
Month to date heating degree days 906 1083  
Since 1 July heating degree days 1925 2415  
Cooling Degree Days 0 0  
Month to date cooling degree days 0 0  
Year to date cooling degree days 776 544  
Moisture  
Dew Point 38 °F    
Average Humidity 82    
Maximum Humidity 93    
Minimum Humidity 70    
Precipitation  
Precipitation 0.05 in 0.12 in 0.73 in (1927)
Month to date precipitation 3.62 3.89  
Year to date precipitation 49.56 40.48  
Snow  
Snow 0.00 in 1.00 in 9.90 in (2008)
Month to date snowfall 3.8 27.4  
Since 1 July snowfall 3.8 36.2  
Snow Depth 0.00 in    
Sea Level Pressure  
Sea Level Pressure 29.87 in    
Wind  
Wind Speed 10 mph (WSW)    
Max Wind Speed 18 mph    
Max Gust Speed 24 mph    
Visibility 6 miles    
Events Fog , Rain    
T = Trace of Precipitation, MM = Missing Value Source: NWS Daily Summary

Daily Weather History Graph

Daily Weather History Graph

Search for Another Location

Airport or City:

Trip Planner

Search our weather history database for the weather conditions in past years. The results will help you decide how hot, cold, wet, or windy it might be!

Date:

Astronomy

Dec. 31, 2011 Rise Set
Actual Time 7:45 AM EST 4:49 PM EST
Civil Twilight 7:13 AM EST 5:22 PM EST
Nautical Twilight 6:37 AM EST 5:57 PM EST
Astronomical Twilight 6:03 AM EST 6:32 PM EST
Moon 11:18 AM EST (12/31) No Moon Set
Length of Visible Light 10h 08m
Length of Day
9h 03m
Waxing Crescent, 45% of the Moon is Illuminated
Dec 31
Waxing Crescent
Jan 1
First Quarter
Jan 9
Full
Jan 16
Last Quarter
Jan 23
New

Hourly Weather History & Observations

Time (EST) Temp. Windchill Dew Point Humidity Pressure Visibility Wind Dir Wind Speed Gust Speed Precip Events Conditions
12:54 AM 44.1 °F 38.6 °F 35.1 °F 71% 29.68 in 10.0 mi South 10.4 mph - 0.01 in   Overcast
1:54 AM 41.0 °F 36.4 °F 34.0 °F 76% 29.68 in 10.0 mi SSW 6.9 mph - N/A   Mostly Cloudy
2:54 AM 44.1 °F 38.6 °F 35.1 °F 71% 29.71 in 10.0 mi South 10.4 mph - N/A   Overcast
3:54 AM 44.6 °F 39.2 °F 35.6 °F 71% 29.69 in 10.0 mi SSW 10.4 mph - N/A   Overcast
4:54 AM 45.0 °F 40.1 °F 37.0 °F 74% 29.71 in 10.0 mi SSW 9.2 mph - 0.00 in Rain Light Rain
5:04 AM 44.6 °F 39.2 °F 37.4 °F 76% 29.70 in 10.0 mi SSW 10.4 mph - 0.00 in Rain Light Rain
5:21 AM 44.6 °F 39.2 °F 37.4 °F 76% 29.70 in 10.0 mi SSW 10.4 mph - 0.00 in Rain Light Rain
5:54 AM 44.1 °F 38.6 °F 39.0 °F 82% 29.73 in 10.0 mi SSW 10.4 mph - 0.00 in Rain Light Rain
6:54 AM 42.8 °F 36.6 °F 39.2 °F 87% 29.73 in 8.0 mi SSW 11.5 mph - N/A Rain Light Rain
7:44 AM 42.8 °F 38.6 °F 39.2 °F 87% 29.76 in 10.0 mi SW 6.9 mph - 0.01 in Rain Light Rain
7:54 AM 43.0 °F 38.2 °F 39.9 °F 89% 29.78 in 10.0 mi SW 8.1 mph - 0.01 in Rain Light Rain
8:30 AM 42.8 °F 39.3 °F 39.2 °F 87% 29.78 in 10.0 mi SSW 5.8 mph - 0.00 in   Overcast
8:54 AM 42.8 °F 38.0 °F 39.2 °F 87% 29.79 in 10.0 mi SSW 8.1 mph - N/A   Overcast
9:26 AM 44.6 °F 38.4 °F 39.2 °F 81% 29.80 in 10.0 mi WSW 12.7 mph - N/A   Overcast
9:54 AM 42.8 °F 35.8 °F 39.2 °F 87% 29.81 in 10.0 mi WSW 13.8 mph - N/A   Overcast
10:07 AM 42.8 °F 35.4 °F 39.2 °F 87% 29.81 in 10.0 mi WSW 15.0 mph 21.9 mph N/A   Overcast
10:54 AM 42.1 °F 34.5 °F 39.9 °F 92% 29.84 in 9.0 mi WSW 15.0 mph 23.0 mph N/A   Overcast
11:09 AM 42.8 °F 35.4 °F 39.2 °F 87% 29.82 in 2.0 mi WSW 15.0 mph 21.9 mph N/A   Overcast
11:14 AM 42.8 °F 35.4 °F 39.2 °F 87% 29.82 in 1.5 mi WSW 15.0 mph 23.0 mph N/A   Light Drizzle
11:36 AM 42.8 °F 34.8 °F 39.2 °F 87% 29.82 in 2.0 mi WSW 17.3 mph 21.9 mph 0.00 in   Light Drizzle
11:42 AM 42.8 °F 34.8 °F 39.2 °F 87% 29.82 in 1.8 mi WSW 17.3 mph 21.9 mph 0.00 in   Light Drizzle
11:54 AM 42.1 °F 34.5 °F 39.9 °F 92% 29.84 in 1.2 mi SW 15.0 mph - 0.00 in   Light Drizzle
12:19 PM 42.8 °F 35.8 °F 39.2 °F 87% 29.82 in 2.0 mi SW 13.8 mph - 0.00 in   Light Drizzle
12:30 PM 42.8 °F 35.4 °F 39.2 °F 87% 29.82 in 1.5 mi WSW 15.0 mph - 0.00 in   Light Drizzle
12:54 PM 42.1 °F 34.5 °F 39.9 °F 92% 29.85 in 5.0 mi SW 15.0 mph - 0.00 in   Overcast
1:20 PM 41.0 °F 33.1 °F 39.2 °F 93% 29.84 in 1.5 mi SW 15.0 mph - 0.00 in   Light Drizzle
1:34 PM 41.0 °F 35.2 °F 39.2 °F 93% 29.84 in 0.5 mi WSW 9.2 mph - 0.00 in   Light Drizzle
1:54 PM 41.0 °F 33.9 °F 39.9 °F 96% 29.87 in 0.2 mi WSW 12.7 mph - 0.00 in Fog Drizzle
2:41 PM 41.0 °F 33.5 °F 39.2 °F 93% 29.87 in 0.2 mi WSW 13.8 mph - 0.00 in Fog Light Drizzle
2:54 PM 41.0 °F 33.1 °F 39.9 °F 96% 29.89 in 0.2 mi WSW 15.0 mph - 0.00 in Fog Light Drizzle
3:20 PM 41.0 °F 34.3 °F 39.2 °F 93% 29.89 in 0.2 mi WSW 11.5 mph - 0.00 in Fog Fog
3:54 PM 41.0 °F 33.9 °F 39.2 °F 93% 29.91 in 0.2 mi WSW 12.7 mph - N/A Fog Fog
4:54 PM 41.0 °F 36.4 °F 39.9 °F 96% 29.95 in 0.8 mi NW 6.9 mph - 0.00 in   Light Drizzle
5:50 PM 37.4 °F 32.8 °F 35.6 °F 93% 29.98 in 0.8 mi WNW 5.8 mph - 0.01 in   Light Drizzle
5:54 PM 37.9 °F 32.7 °F 36.0 °F 93% 30.00 in 0.8 mi WNW 6.9 mph - 0.01 in   Light Drizzle
6:06 PM 37.4 °F 33.8 °F 37.4 °F 100% 29.99 in 4.0 mi West 4.6 mph - 0.00 in   Light Drizzle
6:54 PM 39.0 °F 34.0 °F 37.0 °F 93% 30.04 in 5.0 mi West 6.9 mph - 0.00 in   Light Drizzle
7:54 PM 39.0 °F 32.8 °F 36.0 °F 89% 30.05 in 6.0 mi West 9.2 mph - 0.00 in   Overcast
8:15 PM 39.2 °F 33.6 °F 35.6 °F 87% 30.04 in 8.0 mi WSW 8.1 mph - N/A   Overcast
8:28 PM 39.2 °F 35.0 °F 35.6 °F 87% 30.04 in 8.0 mi WSW 5.8 mph - N/A   Overcast
8:54 PM 37.9 °F 32.1 °F 35.1 °F 89% 30.06 in 8.0 mi West 8.1 mph - N/A   Overcast
9:32 PM 37.4 °F 31.4 °F 35.6 °F 93% 30.06 in 8.0 mi West 8.1 mph - N/A   Overcast
9:54 PM 37.9 °F 33.5 °F 35.1 °F 89% 30.08 in 8.0 mi West 5.8 mph - N/A   Overcast
10:47 PM 37.4 °F 32.1 °F 33.8 °F 87% 30.06 in 10.0 mi West 6.9 mph - N/A   Overcast
10:54 PM 37.4 °F 32.1 °F 33.8 °F 87% 30.06 in 10.0 mi West 6.9 mph - N/A   Overcast
11:46 PM 37.4 °F 33.8 °F 33.8 °F 87% 30.05 in 10.0 mi West 4.6 mph - N/A   Overcast
11:54 PM 37.9 °F - 33.1 °F 83% 30.06 in 10.0 mi Calm Calm - N/A   Overcast